When you browse on this site, cookies collect data to enhance your experience and personalize the content and advertising you see.
Visit our Privacy Policy to learn more. By continuing to use the site, you agree to this use of cookies and data.
  • Em Portugal
  • Lista de países
  • Para 7 dias
  • Temperatura da água
  • Mapas de satélite
  • Mapa do tempo
  • Widgets de tempo
  • user-avatar
    Iniciar Sessão

    Previsão horária em Saidpur

    Hoje, 24 Maio, Sexta-feira

    Tempo Temperatura Precipitação Vento Pressão Humidade
    00:00 +28°C° 0 mm 4 m/s 751 mmHg 85%
    01:00 +27°C° 0.9 mm 4 m/s 751 mmHg 86%
    02:00 +27°C° 0.9 mm 4 m/s 751 mmHg 87%
    03:00 +27°C° 0.9 mm 4 m/s 751 mmHg 88%
    04:00 +26°C° 1.8 mm 5 m/s 751 mmHg 88%
    05:00 +26°C° 1.8 mm 5 m/s 751 mmHg 88%
    06:00 +27°C° 0 mm 5 m/s 751 mmHg 92%
    07:00 +27°C° 0.7 mm 5 m/s 751 mmHg 90%
    08:00 +27°C° 0.7 mm 5 m/s 752 mmHg 88%
    09:00 +28°C° 0.7 mm 5 m/s 752 mmHg 86%
    10:00 +29°C° 0.9 mm 5 m/s 752 mmHg 84%
    11:00 +30°C° 0.9 mm 5 m/s 751 mmHg 81%
    12:00 +32°C° 0.9 mm 5 m/s 751 mmHg 79%
    13:00 +33°C° 0 mm 5 m/s 750 mmHg 76%
    14:00 +34°C° 0 mm 5 m/s 750 mmHg 73%
    15:00 +35°C° 0 mm 4 m/s 749 mmHg 71%
    16:00 +35°C° 0 mm 4 m/s 748 mmHg 72%
    17:00 +34°C° 0 mm 4 m/s 748 mmHg 74%
    18:00 +34°C° 0 mm 4 m/s 747 mmHg 75%
    19:00 +33°C° 2 mm 5 m/s 748 mmHg 79%
    20:00 +32°C° 2 mm 5 m/s 748 mmHg 84%
    21:00 +29°C° 2 mm 5 m/s 748 mmHg 89%
    22:00 +29°C° 1.2 mm 5 m/s 748 mmHg 89%
    23:00 +29°C° 1.2 mm 4 m/s 748 mmHg 89%

    Amanhã, 25 Maio, Sábado

    Tempo Temperatura Precipitação Vento Pressão Humidade
    00:00 +28°C° 1.2 mm 3 m/s 748 mmHg 89%
    01:00 +28°C° 1.5 mm 4 m/s 748 mmHg 91%
    02:00 +28°C° 1.5 mm 4 m/s 747 mmHg 92%
    03:00 +28°C° 1.5 mm 4 m/s 747 mmHg 94%
    04:00 +28°C° 1.7 mm 4 m/s 747 mmHg 93%
    05:00 +28°C° 1.7 mm 3 m/s 747 mmHg 93%
    06:00 +28°C° 1.7 mm 3 m/s 747 mmHg 93%
    07:00 +29°C° 1 mm 3 m/s 748 mmHg 89%
    08:00 +30°C° 1 mm 3 m/s 748 mmHg 84%
    09:00 +33°C° 1 mm 3 m/s 749 mmHg 80%
    10:00 +33°C° 0.2 mm 3 m/s 749 mmHg 79%
    11:00 +34°C° 0.2 mm 3 m/s 748 mmHg 78%
    12:00 +34°C° 0.2 mm 4 m/s 748 mmHg 76%
    13:00 +36°C° 0 mm 3 m/s 747 mmHg 70%
    14:00 +37°C° 0 mm 3 m/s 747 mmHg 63%
    15:00 +39°C° 0 mm 2 m/s 746 mmHg 56%
    16:00 +38°C° 0.4 mm 3 m/s 746 mmHg 62%
    17:00 +36°C° 0.4 mm 5 m/s 745 mmHg 68%
    18:00 +35°C° 0.4 mm 6 m/s 744 mmHg 74%
    19:00 +34°C° 0 mm 6 m/s 745 mmHg 77%
    20:00 +33°C° 0 mm 5 m/s 746 mmHg 80%
    21:00 +32°C° 0 mm 5 m/s 747 mmHg 83%
    22:00 +32°C° 0 mm 5 m/s 747 mmHg 84%
    23:00 +32°C° 0 mm 4 m/s 747 mmHg 85%

    Depois de amanhã, 26 Maio, Domingo

    Tempo Temperatura Precipitação Vento Pressão Humidade
    00:00 +30°C° 0 mm 4 m/s 747 mmHg 86%
    01:00 +30°C° 0.1 mm 4 m/s 747 mmHg 87%
    02:00 +30°C° 0.1 mm 4 m/s 747 mmHg 88%
    03:00 +29°C° 0.1 mm 4 m/s 747 mmHg 88%
    04:00 +29°C° 0.8 mm 4 m/s 747 mmHg 89%
    05:00 +28°C° 0.8 mm 4 m/s 747 mmHg 90%
    06:00 +28°C° 0.8 mm 5 m/s 747 mmHg 91%
    07:00 +29°C° 0.7 mm 4 m/s 748 mmHg 88%
    08:00 +30°C° 0.7 mm 4 m/s 748 mmHg 86%
    09:00 +32°C° 0.7 mm 4 m/s 749 mmHg 83%
    10:00 +33°C° 0 mm 4 m/s 749 mmHg 80%
    11:00 +34°C° 0 mm 3 m/s 749 mmHg 77%
    12:00 +35°C° 0 mm 3 m/s 749 mmHg 73%
    13:00 +36°C° 0.2 mm 3 m/s 748 mmHg 67%
    14:00 +38°C° 0.2 mm 3 m/s 747 mmHg 61%
    15:00 +40°C° 0.2 mm 3 m/s 747 mmHg 54%
    16:00 +39°C° 0.1 mm 3 m/s 746 mmHg 56%
    17:00 +39°C° 0.1 mm 3 m/s 746 mmHg 57%
    18:00 +38°C° 0.1 mm 3 m/s 746 mmHg 59%
    19:00 +37°C° 0.2 mm 3 m/s 747 mmHg 66%
    20:00 +35°C° 0.2 mm 3 m/s 747 mmHg 73%
    21:00 +34°C° 0.2 mm 4 m/s 748 mmHg 80%
    22:00 +33°C° 0.3 mm 4 m/s 748 mmHg 81%
    23:00 +33°C° 0.3 mm 4 m/s 748 mmHg 82%

    27 Maio, Segunda-feira

    Tempo Temperatura Precipitação Vento Pressão Humidade
    00:00 +32°C° 0.3 mm 5 m/s 748 mmHg 83%
    01:00 +32°C° 0.4 mm 4 m/s 748 mmHg 85%
    02:00 +32°C° 0.4 mm 4 m/s 748 mmHg 86%
    03:00 +30°C° 0.4 mm 4 m/s 748 mmHg 87%
    04:00 +30°C° 0.4 mm 4 m/s 748 mmHg 88%
    05:00 +30°C° 0.4 mm 4 m/s 748 mmHg 88%
    06:00 +30°C° 0.4 mm 4 m/s 748 mmHg 88%
    07:00 +32°C° 0.1 mm 4 m/s 749 mmHg 86%
    08:00 +32°C° 0.1 mm 4 m/s 749 mmHg 84%
    09:00 +33°C° 0.1 mm 4 m/s 750 mmHg 81%
    10:00 +34°C° 0.1 mm 4 m/s 749 mmHg 77%
    11:00 +35°C° 0.1 mm 4 m/s 749 mmHg 72%
    12:00 +36°C° 0.1 mm 4 m/s 749 mmHg 67%
    13:00 +37°C° 0 mm 3 m/s 748 mmHg 63%
    14:00 +37°C° 0 mm 3 m/s 748 mmHg 59%
    15:00 +38°C° 0 mm 2 m/s 747 mmHg 55%
    16:00 +38°C° 0 mm 3 m/s 747 mmHg 56%
    17:00 +38°C° 0 mm 3 m/s 746 mmHg 57%
    18:00 +38°C° 0 mm 3 m/s 746 mmHg 59%
    19:00 +36°C° 0 mm 4 m/s 747 mmHg 65%
    20:00 +35°C° 0 mm 4 m/s 748 mmHg 71%
    21:00 +34°C° 0 mm 5 m/s 749 mmHg 77%
    22:00 +33°C° 0.7 mm 5 m/s 749 mmHg 79%
    23:00 +32°C° 0.7 mm 5 m/s 749 mmHg 81%

    28 Maio, Terça-feira

    Tempo Temperatura Precipitação Vento Pressão Humidade
    00:00 +32°C° 0.7 mm 5 m/s 749 mmHg 83%
    01:00 +30°C° 0.2 mm 4 m/s 749 mmHg 85%
    02:00 +30°C° 0.2 mm 4 m/s 748 mmHg 87%
    03:00 +30°C° 0.2 mm 4 m/s 748 mmHg 88%
    04:00 +30°C° 1.2 mm 4 m/s 748 mmHg 89%
    05:00 +29°C° 1.2 mm 4 m/s 748 mmHg 89%
    06:00 +29°C° 1.2 mm 4 m/s 749 mmHg 90%
    07:00 +30°C° 0.4 mm 5 m/s 749 mmHg 88%
    08:00 +30°C° 0.4 mm 5 m/s 750 mmHg 86%
    09:00 +30°C° 0.4 mm 5 m/s 750 mmHg 84%
    10:00 +33°C° 0.1 mm 5 m/s 750 mmHg 78%
    11:00 +35°C° 0.1 mm 5 m/s 750 mmHg 73%
    12:00 +36°C° 0.1 mm 5 m/s 750 mmHg 67%
    13:00 +37°C° 0 mm 4 m/s 749 mmHg 65%
    14:00 +37°C° 0 mm 4 m/s 748 mmHg 63%
    15:00 +37°C° 0 mm 3 m/s 747 mmHg 62%
    16:00 +37°C° 0 mm 4 m/s 747 mmHg 63%
    17:00 +37°C° 0 mm 4 m/s 747 mmHg 65%
    18:00 +36°C° 0 mm 4 m/s 746 mmHg 66%
    19:00 +36°C° 0 mm 4 m/s 747 mmHg 70%
    20:00 +35°C° 0 mm 3 m/s 748 mmHg 73%
    21:00 +34°C° 0 mm 3 m/s 749 mmHg 77%
    22:00 +33°C° 0.5 mm 3 m/s 749 mmHg 78%
    23:00 +33°C° 0.5 mm 3 m/s 749 mmHg 79%

    29 Maio, Quarta-feira

    Tempo Temperatura Precipitação Vento Pressão Humidade
    00:00 +33°C° 0.5 mm 3 m/s 749 mmHg 80%
    01:00 +31°C° 0.2 mm 3 m/s 748 mmHg 82%
    02:00 +30°C° 0.2 mm 3 m/s 748 mmHg 84%
    03:00 +29°C° 0.2 mm 4 m/s 748 mmHg 86%
    04:00 +29°C° 0.1 mm 4 m/s 748 mmHg 87%
    05:00 +29°C° 0.1 mm 4 m/s 748 mmHg 88%
    06:00 +29°C° 0.1 mm 4 m/s 749 mmHg 89%
    07:00 +32°C° 0.2 mm 4 m/s 749 mmHg 84%
    08:00 +33°C° 0.2 mm 4 m/s 750 mmHg 79%
    09:00 +35°C° 0.2 mm 4 m/s 750 mmHg 73%
    10:00 +36°C° 0 mm 4 m/s 750 mmHg 70%
    11:00 +36°C° 0 mm 4 m/s 750 mmHg 66%
    12:00 +37°C° 0 mm 4 m/s 749 mmHg 63%
    13:00 +37°C° 0 mm 4 m/s 748 mmHg 61%
    14:00 +38°C° 0 mm 4 m/s 747 mmHg 60%
    15:00 +38°C° 0 mm 4 m/s 747 mmHg 58%
    16:00 +38°C° 0 mm 3 m/s 746 mmHg 59%
    17:00 +38°C° 0 mm 3 m/s 746 mmHg 60%
    18:00 +38°C° 0 mm 3 m/s 746 mmHg 61%
    19:00 +37°C° 0.1 mm 3 m/s 746 mmHg 65%
    20:00 +35°C° 0.1 mm 4 m/s 747 mmHg 69%
    21:00 +34°C° 0.1 mm 5 m/s 747 mmHg 74%
    22:00 +34°C° 2.4 mm 5 m/s 748 mmHg 74%
    23:00 +33°C° 2.4 mm 5 m/s 748 mmHg 74%
    Mostrar mais